Location: *
(57.8420°S, 159.8600°W)
Time: 04:16:37
(UTC+00:00)

CENTAUR R/B - Pass Details

Date: 18 May 2021
Orbit: 740 x 1447 km, 63.4° (Epoch: 22 June)

Event Time Altitude Azimuth Distance (km) Brightness Sun altitude
Rises 04:40:45 0° 286° (WNW) 4,176 7.5 -17.1°
Reaches altitude 10° 04:43:46 10° 283° (WNW) 3,109 6.4 -17.5°
Maximum altitude 04:51:04 64° 201° (SSW) 1,141 2.9 -18.5°
Enters shadow 04:54:40 27° 127° (SE) 1,771 3.4 -19.0°
